Location: Asheville, NC
(35.6000°N, 82.5500°W)
Time: 03:23:13
(UTC-04:00)

Hubble Space Telescope - Pass Details

Date: 12 March 2018
Orbit: 537 x 541 km, 28.5° (Epoch: 17 June)

Event Time Altitude Azimuth Distance (km) Brightness Sun altitude
Rises 20:18:27 0° 233° (SW) 2,671 5.2 -9.6°
Reaches altitude 10° 20:21:05 10° 218° (SW) 1,781 3.9 -10.1°
Maximum altitude 20:24:16 22° 167° (SSE) 1,207 2.4 -10.8°
Enters shadow 20:26:48 13° 123° (ESE) 1,595 2.6 -11.3°
